Location: Benque
(43.2594°N, 0.9178°E)
Time: 18:40:11
(UTC+00:00)

Cosmos 2082 - Pass Details

Date: 24 January 2020
Orbit: 833 x 856 km, 71.0° (Epoch: 25 February)

Event Time Altitude Azimuth Distance (km) Brightness Sun altitude
Rises 17:28:31 0° 177° (S) 3,363 7.1 -6.1°
Reaches altitude 10° 17:31:08 10° 168° (SSE) 2,435 6.2 -6.6°
Maximum altitude 17:36:06 34° 105° (ESE) 1,345 4.4 -7.4°
Drops below altitude 10° 17:41:07 10° 42° (NE) 2,458 5.6 -8.3°
Enters shadow 17:42:35 - 36° (NE) 2,972 6.0 -8.5°
